This demonstration page uses our WeatherBlox Daily Observations layout. Learn more.

38.89511, -77.03637

Hourly Observations for April 6, 2017

Temp ( °F °C ) Dew Point ( °F °C ) Humidity (%) Winds ( mph kmh ) Pressure ( in mb ) Visibility ( mi km ) Precip ( " mm )
12:52 am 00:52 Cloudy 59 15 48 8.9 67 67 E 6 9 29.77 1008 10 16.09344 0 0
1:52 am 01:52 Cloudy 58 14.4 48 8.9 70 70 ENE 8 13 29.71 1006 10 16.09344 0 0
2:52 am 02:52 Mostly Cloudy 57 13.9 49 9.4 74 74 E 7 11 29.68 1005 10 16.09344 0 0
3:38 am 03:38 Cloudy 57 14 50 10 77 77 E 10 17 29.68 1005 10 16.09344 0 0
3:52 am 03:52 Cloudy 57 13.9 50 10 78 78 E 10 17 29.68 1005 10 16.09344 0 0
4:11 am 04:11 Cloudy 57 13.9 50 10 78 78 E 8 13 29.68 1005 10 16.09344 0 0
4:52 am 04:52 Cloudy 57 13.9 51 10.6 81 81 ENE 8 13 29.65 1004 10 16.09344 0 0
5:21 am 05:21 Cloudy with Light Rain 56 13.3 52 11.1 87 87 ENE 6 9 29.65 1004 5 8.04672 0.001 0.001
5:52 am 05:52 Cloudy 56 13.3 53 11.7 90 90 ENE 9 15 29.62 1003 10 16.09344 0.001 0.001
6:52 am 06:52 Cloudy 56 13.3 53 11.7 90 90 E 12 19 32.45 1099 10 16.09344 0 0
7:12 am 07:12 Cloudy 55 13 54 12 94 94 ESE 7 11 29.56 1001 10 16.09344 0 0
7:52 am 07:52 Cloudy 58 14.4 55 12.8 90 90 SE 3 6 29.53 1000 10 16.09344 0 0
8:35 am 08:35 Cloudy with Nearby Thunderstorms 59 15 56 13.3 90 90 Calm 29.56 1001 10 16.09344 0 0
8:41 am 08:41 Cloudy with Nearby Thunderstorms 59 15 56 13.3 90 90 Calm 29.56 1001 10 16.09344 0.001 0.001
8:52 am 08:52 Cloudy with Nearby Thunderstorms 58 14.4 56 13.3 93 93 Calm 29.53 1000 4 6.437376 0.001 0.001
9:06 am 09:06 Cloudy with Heavy Thunderstorms 57 14 57 14 100 100 Calm 29.56 1001 1.5 2.414016 0 0
9:09 am 09:09 Cloudy with Heavy Thunderstorms 58 14.4 57 13.9 97 97 Calm 29.56 1001 1.5 2.414016 0.08 2.032
9:18 am 09:18 Cloudy with Thunderstorms 57 14 57 14 100 100 Calm 29.53 1000 1.75 2.816352 0 0
9:22 am 09:22 Cloudy with Thunderstorms 57 14 57 14 100 100 Calm 29.53 1000 2 3.218688 0 0
9:31 am 09:31 Cloudy with Nearby Thunderstorms 58 14.4 57 13.9 97 97 ENE 7 11 29.5 999 2 3.218688 0.17 4.318
9:47 am 09:47 Cloudy with Nearby Thunderstorms 57 14 57 14 100 100 NE 10 17 29.47 998 3 4.828032 0.2 5.08
9:52 am 09:52 Cloudy with Light Thunderstorms 58 14.4 58 14.4 100 100 ENE 9 15 32.39 1097 3 4.828032 0.21 5.334
10:13 am 10:13 Cloudy with Thunderstorms 58 14.4 58 14.4 100 100 NE 10 17 29.44 997 2 3.218688 0.05 1.27
10:22 am 10:22 Cloudy with Heavy Thunderstorms 57 14 57 14 100 100 ENE 10 17 29.44 997 1.5 2.414016 0 0
10:30 am 10:30 Cloudy with Nearby Thunderstorms 57 14 57 14 100 100 ENE 10 17 29.44 997 1.25 2.01168 0 0
10:39 am 10:39 Cloudy with Rain 58 14.4 58 14.4 100 100 ENE 10 17 29.44 997 1.5 2.414016 0.19 4.826
10:44 am 10:44 Cloudy with Rain 57 14 57 14 100 100 ENE 10 17 29.41 996 1.5 2.414016 0 0
10:52 am 10:52 Cloudy with Heavy Rain 58 14.4 58 14.4 100 100 ENE 12 19 32.34 1095 1.5 2.414016 0.25 6.35
11:04 am 11:04 Cloudy with Light Rain 59 15 57 14 94 94 ENE 14 22 29.38 995 2.5 4.02336 0 0
11:16 am 11:16 Cloudy with Nearby Thunderstorms 59 15 59 15 100 100 ENE 9 15 29.38 995 2.5 4.02336 0 0
11:22 am 11:22 Cloudy with Nearby Thunderstorms 59 15 59 15 100 100 N 6 9 29.38 995 4 6.437376 0 0
11:30 am 11:30 Cloudy with Nearby Thunderstorms 59 15 59 15 100 100 NNE 14 22 29.35 994 4 6.437376 0 0
11:36 am 11:36 Cloudy with Heavy Rain 59 15 59 15 100 100 NE 13 20 29.35 994 2.5 4.02336 0 0
11:48 am 11:48 Cloudy with Nearby Thunderstorms 57 14 57 14 100 100 ENE 17 28 29.32 993 1 1.609344 0 0
11:52 am 11:52 Cloudy with Heavy Thunderstorms 58 14.4 58 14.4 100 100 ENE 17 28 32.28 1093 1 1.609344 0.24 6.096
11:59 am 11:59 Cloudy with Heavy Thunderstorms 58 14.4 58 14.4 100 100 ENE 14 22 29.32 993 2.5 4.02336 0.21 5.334
12:02 pm 12:02 Cloudy with Thunderstorms 58 14.4 57 13.9 97 97 ENE 17 28 29.32 993 1.5 2.414016 0.22 5.588
12:07 pm 12:07 Cloudy with Heavy Rain 57 13.9 57 13.9 100 100 ENE 16 26 29.32 993 1.25 2.01168 0.32 8.128
12:20 pm 12:20 Cloudy with Rain 57 14 57 14 100 100 N 9 15 29.29 992 2.5 4.02336 0 0
12:23 pm 12:23 Cloudy with Light Rain 57 13.9 57 13.9 100 100 N 7 11 29.29 992 4 6.437376 0.48 12.192
12:45 pm 12:45 Cloudy with Light Rain 57 13.9 56 13.3 96 96 NNE 8 13 29.29 992 4 6.437376 0.49 12.446
12:52 pm 12:52 Cloudy with Heavy Rain 57 13.9 56 13.3 96 96 N 5 7 32.25 1092 3 4.828032 0.51 12.954
12:57 pm 12:57 Cloudy with Heavy Rain 57 13.9 56 13.3 96 96 NNE 7 11 29.29 992 1.75 2.816352 0.06 1.524
1:00 pm 13:00 Cloudy with Rain 57 14 57 14 100 100 NNE 10 17 29.26 991 3 4.828032 0 0
1:08 pm 13:08 Cloudy with Light Rain 57 14 57 14 100 100 NE 7 11 29.26 991 4 6.437376 0 0
1:15 pm 13:15 Cloudy with Light Rain 59 15 58 14.4 96 96 NE 6 9 29.26 991 7 11.265408 0.1 2.54
1:21 pm 13:21 Cloudy with Nearby Thunderstorms 60 15.6 59 15 96 96 ENE 5 7 29.26 991 10 16.09344 0.1 2.54
1:39 pm 13:39 Cloudy with Thunderstorms 60 15.6 59 15 96 96 N 3 6 29.26 991 7 11.265408 0.1 2.54
1:42 pm 13:42 Cloudy with Heavy Thunderstorms 61 16 57 14 88 88 undefined N/A 29.29 992 1.5 2.414016 0 0
1:47 pm 13:47 Cloudy with Thunderstorms 57 14 52 11 82 82 W 32 52 29.29 992 5 8.04672 0.13 3.302
1:58 pm 13:58 Cloudy with Thunderstorms 55 13 50 10 82 82 W 24 39 29.29 992 5 8.04672 0 0
2:10 pm 14:10 Cloudy with Light Thunderstorms 54 12 48 9 82 82 W 17 28 29.29 992 9 14.484096 0 0
2:28 pm 14:28 Cloudy with Light Rain 55 13 48 9 77 77 NW 13 20 29.29 992 10 16.09344 0 0
2:52 pm 14:52 Mostly Cloudy 55 12.8 50 10 83 83 NNW 14 22 32.19 1090 10 16.09344 0.03 0.762
3:34 pm 15:34 Mostly Cloudy with Nearby Thunderstorms 61 16 52 11 72 72 W 14 22 29.29 992 10 16.09344 0 0
3:52 pm 15:52 Mostly Cloudy with Nearby Thunderstorms 58 14.4 49 9.4 72 72 W 15 24 32.25 1092 10 16.09344 0.001 0.001
3:59 pm 15:59 Mostly Cloudy with Light Rain 57 13.9 50 10 78 78 WSW 18 30 29.35 994 6 9.656064 0.001 0.001
4:11 pm 16:11 Cloudy with Rain 56 13.3 51 10.6 84 84 NNW 22 35 29.32 993 3 4.828032 0.03 0.762
4:16 pm 16:16 Mostly Cloudy with Rain 55 13 52 11 88 88 NNW 18 30 29.29 992 6 9.656064 0 0
4:22 pm 16:22 Mostly Cloudy with Light Rain 55 13 52 11 88 88 NW 15 24 29.29 992 8 12.874752 0 0
4:52 pm 16:52 Mostly Cloudy 57 13.9 52 11.1 83 83 N 7 11 32.25 1092 10 16.09344 0.08 2.032
5:52 pm 17:52 Mostly Sunny 59 15 50 10 72 72 W 13 20 32.28 1093 10 16.09344 0 0
6:52 pm 18:52 Mostly Cloudy 59 15 49 9.4 69 69 SW 3 6 32.28 1093 10 16.09344 0.001 0.001
7:12 pm 19:12 Mostly Cloudy with Heavy Rain 57 14 50 10 77 77 WSW 9 15 29.35 994 4 6.437376 0 0
7:28 pm 19:28 Cloudy with Light Rain 55 13 52 11 88 88 WSW 12 19 29.35 994 7 11.265408 0 0
7:52 pm 19:52 Mostly Cloudy with Light Rain 57 13.9 46 7.8 67 67 WSW 12 19 32.28 1093 10 16.09344 0.09 2.286
8:52 pm 20:52 Mostly Cloudy 55 12.8 49 9.4 80 80 WSW 6 9 32.31 1094 10 16.09344 0.001 0.001
9:52 pm 21:52 Mostly Cloudy 56 13.3 44 6.7 65 65 W 12 19 32.34 1095 10 16.09344 0 0
10:52 pm 22:52 Partly Cloudy 53 11.7 35 1.7 51 51 W 10 17 32.36 1096 10 16.09344 0 0
11:52 pm 23:52 Mostly Clear 52 11.1 35 1.7 53 53 WSW 8 13 32.39 1097 10 16.09344 0 0

Powered by AerisWeather